Location: Newark
(48.9358°N, 1.4000°E)
Time: 20:57:43
(UTC+00:00)

Envisat - Visible Passes

Search period start: 18 October 2019 00:00
Search period end: 28 October 2019 00:00
Orbit: 764 x 766 km, 98.1° (Epoch: 18 October)

Date Brightness Start Highest point End Pass type
(mag) Time Alt. Az. Time Alt. Az. Time Alt. Az.
18 Oct 4.9 18:46:46 10° SSW 18:51:15 31° W 18:55:45 10° NNW visible
19 Oct 3.5 18:09:16 10° S 18:14:17 63° WSW 18:19:21 10° NNW visible
20 Oct 3.0 17:32:29 10° SSE 17:37:31 66° ENE 17:42:34 10° N visible
20 Oct 5.7 19:13:26 10° SW 19:17:01 19° W 19:20:37 10° NW visible
21 Oct 6.1 05:38:24 10° NE 05:41:42 17° E 05:44:58 10° SE visible
21 Oct 4.5 18:35:12 10° SSW 18:39:54 38° W 18:44:39 10° NNW visible
22 Oct 3.2 17:57:55 10° S 18:03:00 77° WSW 18:08:07 10° NNW visible
22 Oct 6.2 19:41:21 10° WSW 19:42:53 11° W 19:44:26 10° WNW visible
23 Oct 3.1 17:21:21 10° SE 17:26:17 54° ENE 17:31:15 10° N visible
23 Oct 5.4 19:01:36 10° SW 19:05:38 23° W 19:09:41 10° NW visible
24 Oct 6.3 05:27:44 10° NE 05:30:16 14° E 05:32:49 10° ESE visible
24 Oct 4.1 18:23:42 10° S 18:28:35 47° W 18:33:30 10° NNW visible
25 Oct 3.0 17:46:38 10° SSE 17:51:44 87° ENE 17:56:51 10° NNW visible
25 Oct 6.0 19:28:47 10° WSW 19:31:27 14° W 19:34:07 10° NW visible
26 Oct 5.9 05:52:07 10° NE 05:56:07 23° E 06:00:04 10° SE visible
26 Oct 3.3 17:10:17 10° SE 17:15:04 44° ENE 17:19:53 10° N visible
26 Oct 5.0 18:49:54 10° SSW 18:54:16 29° W 18:58:39 10° NW visible
27 Oct 6.6 05:17:35 10° ENE 05:18:50 11° E 05:20:05 10° E visible
27 Oct 3.7 18:12:16 10° S 18:17:16 58° W 18:22:18 10° NNW visible
